Terminal Aerodrome Forecast
Issued by NWS Wilmington, OH

Current Version | Previous Version | Graphics & Text | Print | Product List | Glossary On
Versions: 1 2 3 4 5 6 7 8 9 10 11 12 13 14 15 16 17 18 19 20 21 22 23 24
000
FTUS41 KILN 230541
TAFCVG
TAF
KCVG 230541Z 2306/2412 07008KT P6SM FEW150
     FM231600 11009KT P6SM SCT100
     FM231900 13009KT P6SM BKN090
     FM240400 18008KT P6SM BKN060 WS020/21045KT
     FM240800 20012KT P6SM BKN150 WS020/21045KT=

USA.gov is the U.S. government's official web portal to all federal, state and local government web resources and services.